Tracking 32420 objects as of 8-Dec-2025
HD Live streaming from Space Station
objects crossing your sky now

COSMOS 1349

Track COSMOS 1349 now!
10-day predictions
COSMOS 1349 is classified as:


NORAD ID: 13127
Int'l Code: 1982-030A
Perigee: 970.3 km
Apogee: 1,014.4 km
Inclination: 82.9 °
Period: 104.8 minutes
Semi major axis: 7363 km
RCS: 2.1672 m2 (large)
Launch date: April 8, 1982
Source: Commonwealth of Independent States (former USSR) (CIS)
Launch site: PLESETSK MISSILE AND SPACE COMPLEX (PKMTR)
Your satellite tracking list
Your tracking list is empty




NASA's NSSDC Master Catalog

Two Line Element Set (TLE):
1 13127U 82030A   25341.96783759  .00000076  00000-0  65262-4 0  9994
2 13127  82.9287 303.9168 0029995 207.1073 212.9530 13.74010798189051
Source of the keplerian elements: AFSPC